EW2571 Cutchogue NY US current weather conditions

sailwx.info

Wind from 077 at 1 knots gusting 5

Air temperature 23.3° C
Dewpoint 22.7° C

Last reported at 2020-Jul-10 09:03 UTC.
Time now 2020-Jul-10 09:59 UTC

Location: N 41°00' W 072°29'.
View on Google Maps.

See reports from other nearby stations

  
Tides and Currents Weather Stations Pressure Air Temp Water Temp Dewpoint Dewpoint Depression Visibility Wind Speed Wind Dir Waves Ship Positions
date/time (UTC)wind fromknots sea level pressurealtimeterstation pressurevisibilityair tempwater tempwave heightnotes
2020-Jul-10 09:03 077 1 gusting 5 23.3
2020-Jul-10 08:48 051 1 gusting 4 23.3
2020-Jul-10 08:33 067 1 gusting 5 23.3
2020-Jul-10 08:18 058 1 gusting 3 23.9
2020-Jul-10 08:03 081 0 gusting 4 23.9
2020-Jul-10 07:33 120 0 gusting 5 23.3
2020-Jul-10 07:18 115 1 gusting 5 23.3
2020-Jul-10 07:03 092 0 gusting 4 23.3
2020-Jul-10 06:48 152 0 gusting 3 23.3
2020-Jul-10 06:33 110 0 gusting 4 23.3
2020-Jul-10 06:18 102 0 gusting 3 23.3
2020-Jul-10 06:03 096 2 gusting 4 23.3
2020-Jul-10 05:48 087 1 gusting 5 23.9
2020-Jul-10 05:33 077 1 gusting 4 23.9
2020-Jul-10 05:18 067 0 gusting 3 23.3
2020-Jul-10 05:03 114 1 gusting 5 23.9
2020-Jul-10 04:48 120 1 gusting 3 23.3
2020-Jul-10 04:33 153 0 gusting 3 23.3
2020-Jul-10 04:18 126 0 gusting 4 23.3
2020-Jul-10 04:03 111 0 gusting 3 23.9
2020-Jul-10 03:48 125 23.9
2020-Jul-10 03:18 142 1 gusting 3 23.9
2020-Jul-10 03:03 139 0 gusting 2 23.9
2020-Jul-10 02:48 102 0 gusting 2 23.9
2020-Jul-10 02:33 217 0 gusting 2 23.9
2020-Jul-10 02:18 118 0 gusting 3 23.9
2020-Jul-10 02:03 123 0 gusting 1 23.9
2020-Jul-10 01:48 120 23.9
2020-Jul-10 01:33 124 0 gusting 1 24.4
2020-Jul-10 01:18 094 24.4
2020-Jul-10 01:03 124 0 gusting 2 24.4
2020-Jul-10 00:48 163 0 gusting 2 24.4
2020-Jul-10 00:33 105 25.0
2020-Jul-10 00:18 137 2 gusting 3 25.0
2020-Jul-10 00:03 150 1 gusting 5 25.6
2020-Jul-09 23:48 088 2 gusting 6 26.1
2020-Jul-09 23:33 176 0 gusting 6 26.1
2020-Jul-09 23:18 129 2 gusting 6 26.7
2020-Jul-09 23:03 141 2 gusting 6 27.2
2020-Jul-09 22:48 127 3 gusting 8 27.2
2020-Jul-09 22:33 114 4 gusting 8 27.2
2020-Jul-09 22:18 142 2 gusting 8 27.2
2020-Jul-09 22:03 140 2 gusting 6 27.8
2020-Jul-09 21:48 072 3 gusting 10 27.2
2020-Jul-09 21:33 143 4 gusting 8 27.2
2020-Jul-09 21:18 131 4 gusting 11 27.2
2020-Jul-09 21:03 181 4 gusting 9 27.8
2020-Jul-09 20:48 169 4 gusting 9 28.3
2020-Jul-09 20:33 105 5 gusting 8 27.8
2020-Jul-09 20:18 133 5 gusting 10 27.8
2020-Jul-09 20:03 125 1 gusting 10 28.3
2020-Jul-09 19:48 099 4 gusting 10 28.3
2020-Jul-09 19:33 111 6 gusting 10 27.8
2020-Jul-09 19:18 154 1 gusting 8 28.3
2020-Jul-09 19:03 125 2 gusting 10 27.8
2020-Jul-09 18:48 151 5 gusting 8 27.8
2020-Jul-09 18:33 147 2 gusting 10 28.3
2020-Jul-09 18:18 176 3 gusting 10 27.8
2020-Jul-09 18:03 143 6 gusting 9 27.8
2020-Jul-09 17:48 182 3 gusting 8 28.3
2020-Jul-09 17:33 138 3 gusting 8 28.3
2020-Jul-09 17:18 125 3 gusting 9 28.3
2020-Jul-09 17:03 147 2 gusting 7 28.3
2020-Jul-09 16:48 137 4 gusting 9 27.8
2020-Jul-09 16:33 166 4 gusting 8 28.3
2020-Jul-09 16:18 129 4 gusting 9 27.8
2020-Jul-09 16:03 164 4 gusting 12 27.8
2020-Jul-09 15:48 117 4 gusting 8 27.8
2020-Jul-09 15:33 096 3 gusting 6 28.3
2020-Jul-09 15:18 129 2 gusting 9 27.2
2020-Jul-09 15:03 205 5 gusting 9 26.7
2020-Jul-09 14:48 165 2 gusting 10 27.2
2020-Jul-09 14:33 092 3 gusting 7 27.2
2020-Jul-09 14:18 136 5 gusting 8 27.2
2020-Jul-09 14:03 145 3 gusting 6 27.8
2020-Jul-09 13:48 122 4 gusting 6 27.8
2020-Jul-09 13:33 147 3 gusting 6 27.8
2020-Jul-09 13:18 179 1 gusting 5 27.2
2020-Jul-09 13:03 134 0 gusting 4 27.2
2020-Jul-09 12:48 120 1 gusting 5 27.2
2020-Jul-09 12:33 108 26.7
2020-Jul-09 12:18 168 0 gusting 5 26.1
2020-Jul-09 12:03 240 2 gusting 4 25.6
2020-Jul-09 11:48 207 1 gusting 3 25.0
2020-Jul-09 11:33 168 1 gusting 3 24.4
2020-Jul-09 11:18 200 1 gusting 5 23.9
2020-Jul-09 11:03 256 1 gusting 6 23.9
2020-Jul-09 10:48 094 1 gusting 4 23.9
2020-Jul-09 10:33 213 1 gusting 4 23.9
2020-Jul-09 10:18 144 23.9
2020-Jul-09 10:03 209 0 gusting 1 23.9
2020-Jul-09 09:48 221 23.3
2020-Jul-09 09:33 232 23.3
2020-Jul-09 09:18 220 23.3
2020-Jul-09 09:03 226 0 gusting 1 23.3
2020-Jul-09 08:48 172 23.3
2020-Jul-09 08:33 252 0 gusting 4 23.3
2020-Jul-09 08:18 209 23.3
2020-Jul-09 08:03 231 23.3
2020-Jul-09 07:48 214 23.3
2020-Jul-09 07:33 204 0 gusting 3 23.3
2020-Jul-09 07:18 244 0 gusting 1 23.3
2020-Jul-09 07:03 141 23.9
2020-Jul-09 06:48 149 0 gusting 4 23.9
2020-Jul-09 06:33 230 0 gusting 6 23.9
2020-Jul-09 06:18 164 2 gusting 6 23.9
2020-Jul-09 06:03 217 1 gusting 5 23.9
2020-Jul-09 05:48 172 2 gusting 7 23.9
2020-Jul-09 05:33 191 3 gusting 7 23.9
2020-Jul-09 05:18 272 3 gusting 10 23.9
2020-Jul-09 05:03 241 3 gusting 8 23.9
2020-Jul-09 04:48 184 2 gusting 6 23.9
2020-Jul-09 04:33 222 2 gusting 6 23.9
2020-Jul-09 04:18 124 0 gusting 8 23.9
2020-Jul-09 04:03 328 0 gusting 5 23.9
2020-Jul-09 03:48 158 0 gusting 5 23.9
2020-Jul-09 03:33 265 1 gusting 3 23.9
2020-Jul-09 03:18 148 0 gusting 5 23.9
2020-Jul-09 03:03 212 1 gusting 6 24.4
2020-Jul-09 02:48 236 1 gusting 6 24.4
2020-Jul-09 02:33 219 2 gusting 10 24.4
2020-Jul-09 02:18 218 1 gusting 6 24.4
2020-Jul-09 02:03 227 3 gusting 6 24.4
2020-Jul-09 01:48 188 2 gusting 6 24.4
2020-Jul-09 01:33 221 2 gusting 6 24.4
2020-Jul-09 01:18 219 1 gusting 6 24.4
2020-Jul-09 01:03 212 2 gusting 5 24.4
2020-Jul-09 00:48 160 1 gusting 5 24.4
2020-Jul-09 00:33 104 0 gusting 4 24.4
2020-Jul-09 00:18 169 1 gusting 5 25.0
2020-Jul-09 00:03 130 0 gusting 4 25.0
2020-Jul-08 23:48 124 0 gusting 3 25.0
2020-Jul-08 23:33 144 2 gusting 5 25.0
2020-Jul-08 23:18 115 1 gusting 3 25.0
2020-Jul-08 23:03 145 0 gusting 6 25.0
2020-Jul-08 22:48 192 1 gusting 6 25.0
2020-Jul-08 22:33 214 2 gusting 9 25.0
2020-Jul-08 22:18 200 2 gusting 6 25.0
2020-Jul-08 22:03 217 4 gusting 9 25.0
2020-Jul-08 21:48 111 3 gusting 8 25.6
2020-Jul-08 21:33 154 2 gusting 8 25.6
2020-Jul-08 21:18 108 3 gusting 10 25.6
2020-Jul-08 21:03 178 4 gusting 9 25.6
2020-Jul-08 20:48 146 2 gusting 7 26.1
2020-Jul-08 20:33 154 3 gusting 8 26.1
2020-Jul-08 20:18 207 3 gusting 9 26.7
2020-Jul-08 20:03 177 2 gusting 9 26.7
2020-Jul-08 19:48 148 2 gusting 9 26.7
2020-Jul-08 19:33 148 4 gusting 11 27.2
2020-Jul-08 19:18 219 3 gusting 8 27.2
2020-Jul-08 19:03 190 2 gusting 9 27.2
2020-Jul-08 18:48 133 5 gusting 10 27.8
2020-Jul-08 18:33 188 1 gusting 11 28.9
2020-Jul-08 18:18 193 3 gusting 13 28.9
2020-Jul-08 18:03 098 3 gusting 10 28.3
2020-Jul-08 17:48 198 5 gusting 8 28.3
2020-Jul-08 17:33 184 3 gusting 8 28.9
2020-Jul-08 17:18 192 6 gusting 12 28.3
2020-Jul-08 17:03 176 4 gusting 9 27.8
2020-Jul-08 16:48 225 4 gusting 8 27.8
2020-Jul-08 16:33 138 3 gusting 7 28.3
2020-Jul-08 16:18 148 4 gusting 6 28.3
2020-Jul-08 16:03 136 4 gusting 8 27.8
2020-Jul-08 15:48 165 1 gusting 9 28.3
2020-Jul-08 15:33 166 4 gusting 9 28.3
2020-Jul-08 15:18 162 3 gusting 10 28.3
2020-Jul-08 15:03 214 2 gusting 11 27.8
2020-Jul-08 14:48 229 4 gusting 8 27.8
2020-Jul-08 14:33 195 2 gusting 9 27.8
2020-Jul-08 14:03 166 4 gusting 10 27.2
2020-Jul-08 13:48 154 2 gusting 8 26.7
2020-Jul-08 13:33 123 3 gusting 6 26.7
2020-Jul-08 13:18 165 3 gusting 7 26.1
2020-Jul-08 13:03 166 1 gusting 7 25.6
2020-Jul-08 12:48 171 2 gusting 6 25.6
2020-Jul-08 12:33 115 3 gusting 7 25.6
2020-Jul-08 12:18 167 1 gusting 6 25.0
2020-Jul-08 12:03 139 1 gusting 6 24.4
2020-Jul-08 11:48 250 1 gusting 6 23.9
2020-Jul-08 11:33 189 3 gusting 10 23.9
2020-Jul-08 11:18 210 1 gusting 5 23.3
2020-Jul-08 11:03 115 0 gusting 4 23.3
2020-Jul-08 10:48 211 0 gusting 6 23.3
2020-Jul-08 10:33 133 0 gusting 4 23.3
2020-Jul-08 10:18 191 0 gusting 4 23.3
2020-Jul-08 10:03 124 1 gusting 6 22.8
2020-Jul-08 09:48 238 1 gusting 6 23.3
2020-Jul-08 09:33 262 1 gusting 8 23.3
2020-Jul-08 09:18 218 1 gusting 5 23.3
2020-Jul-08 09:03 194 1 gusting 7 23.3